THORAD AGENA D DEB, 19290

Orbit data source: Space-Track

THORAD AGENA D DEB, 19290 is space debris in SSO originally from a launch on Wed, 08 Apr 1970 UTC launched from the Air Force Western Test Range (AFWTR). Debris objects in space refer to the collection of defunct objects orbiting the Earth. Examples of debris include non-operational satellites, rocket bodies, and fragments generated from explosions, collisions, or faulty payload assembly.

Loading next visibility...
Identifier
19290, 1970-025PV
Orbit
SSO
Country
Flag of USUS
Related business
Manufacturer
Unknown
Mission
Spacecraft
Bus & Motor
Unknown
Mass
Unknown
Launch date (UTC)
1970-04-08 (56 years ago)
Launch vehicle
Unknown
Launch site
Air Force Western Test Range (AFWTR)
Object type
Payload
Rocket body
Debris
Shape & HBR
Unknown shape, 0.1 m
Radar Cross Section
Small (<0.1 m²)

Expand to show TLE details & history
Last TLE update: 2 days ago

TLE from 2 days ago
0 THORAD AGENA D DEB
1 19290U 70025PV  25298.34447560  .00000479  00000-0  71299-3 0  9995
2 19290  99.8702 242.4130 0027214  96.0123  55.4192 13.58967852  6603
Epoch: 2025-10-25T08:16Z
TLE epoch observation values (Epoch: 2025-10-25T08:16:02.691Z)
Latitude
27.89768°
Longitude
-90.31667°
Altitude
1,031.343 km
Speed
7.344 km/s
True Right ascension
04h 30m 41s
True Declination
27° 45' 39"
Sunlit
Object was in full shadow at epoch
Visualization orbit readout
Latitude
Unknown
Longitude
Unknown
Altitude
Unknown
Speed
Unknown
Apparent Right ascension
Unknown
Apparent Declination
Unknown
Sunlit
N/A
Visualization observer readout
Local Sidereal Time
17:00:40
Azimuth
Unknown
Elevation
Unknown
Doppler factor
Unknown
Orbital elements
Apogee altitude
1,056.923 km
Perigee altitude
1,016.565 km
Semi-major axis
7,414.881 km
Eccentricity
0.00272
Inclination
99.8702°
RAAN
242.413°
Arg. of periapsis
96.0123°
True anomaly
55.67645°
Mean anomaly
55.4192°
Eccentric anomaly
55.54778°
Mean motion
3.39928 °/min
Orbital period
105.9 mins
BSTAR
0.00071299
Loading maneuver chart data...
Computing Atmospheric mass density...

Documentation

Showing up to 5 results
|